Time,TemperatureF,DewpointF,PressureIn,WindDirection,WindDirectionDegrees,WindSpeedMPH,WindSpeedGustMPH,Humidity,HourlyPrecipIn,Conditions,Clouds,dailyrainin,SoftwareType,DateUTC
2013-11-21 00:12:00,75.0,72.0,30.08,ENE,70,9.0,18.0,89,0.00,,,1.95,,2013-11-21 05:12:00,
2013-11-21 00:23:00,74.0,71.0,30.08,North,351,5.0,16.0,91,0.01,,,1.96,,2013-11-21 05:23:00,
2013-11-21 00:43:00,75.0,72.0,30.07,ENE,70,10.0,18.0,90,0.02,,,1.97,,2013-11-21 05:43:00,
2013-11-21 00:52:00,74.0,71.0,30.07,ENE,61,5.0,17.0,90,0.02,,,1.97,,2013-11-21 05:52:00,
2013-11-21 01:12:00,74.0,72.0,30.08,ESE,117,6.0,16.0,92,0.01,,,1.97,,2013-11-21 06:12:00,
2013-11-21 01:22:00,73.0,71.0,30.08,North,356,7.0,13.0,92,0.01,,,1.97,,2013-11-21 06:22:00,
2013-11-21 01:33:00,73.0,71.0,30.08,North,356,7.0,13.0,92,0.01,,,1.97,,2013-11-21 06:33:00,
2013-11-21 01:43:00,73.0,71.0,30.08,North,356,7.0,13.0,92,0.01,,,1.97,,2013-11-21 06:43:00,
2013-11-21 01:52:00,73.0,71.0,30.07,ENE,66,8.0,14.0,95,0.00,,,1.97,,2013-11-21 06:52:00,
2013-11-21 02:22:00,73.0,71.0,30.08,East,88,4.0,13.0,93,0.00,,,1.97,,2013-11-21 07:22:00,
2013-11-21 02:33:00,73.0,71.0,30.08,East,88,4.0,13.0,93,0.00,,,1.97,,2013-11-21 07:33:00,
2013-11-21 08:22:00,74.0,72.0,30.12,NE,53,3.0,8.0,92,0.00,,,1.83,,2013-11-21 13:22:00,
2013-11-21 08:42:00,75.0,72.0,30.13,East,95,5.0,11.0,91,0.00,,,1.83,,2013-11-21 13:42:00,
2013-11-21 08:52:00,74.0,72.0,30.13,ENE,74,6.0,10.0,92,0.00,,,1.83,,2013-11-21 13:52:00,
2013-11-21 09:11:00,75.0,72.0,30.14,ESE,102,8.0,19.0,90,0.00,,,1.83,,2013-11-21 14:11:00,
2013-11-21 09:22:00,75.0,72.0,30.14,ESE,102,8.0,19.0,90,0.00,,,1.83,,2013-11-21 14:22:00,
2013-11-21 09:42:00,76.0,73.0,30.14,ENE,57,8.0,14.0,89,0.00,,,1.83,,2013-11-21 14:42:00,
2013-11-21 09:52:00,76.0,73.0,30.15,SE,134,8.0,12.0,90,0.00,,,1.83,,2013-11-21 14:52:00,
2013-11-21 10:12:00,76.0,73.0,30.16,NE,50,10.0,17.0,89,0.00,,,1.83,,2013-11-21 15:12:00,
2013-11-21 10:22:00,76.0,73.0,30.16,ESE,102,6.0,15.0,89,0.01,,,1.84,,2013-11-21 15:22:00,
2013-11-21 10:43:00,75.0,72.0,30.16,ENE,59,7.0,13.0,90,0.01,,,1.84,,2013-11-21 15:43:00,
2013-11-21 10:53:00,75.0,72.0,30.16,ENE,59,7.0,13.0,90,0.01,,,1.84,,2013-11-21 15:53:00,
2013-11-21 11:13:00,76.0,73.0,30.15,East,82,5.0,12.0,90,0.01,,,1.84,,2013-11-21 16:13:00,
2013-11-21 11:24:00,77.0,74.0,30.15,ENE,72,5.0,13.0,89,0.01,,,1.84,,2013-11-21 16:24:00,
2013-11-21 11:42:00,78.0,74.0,30.15,East,86,6.0,12.0,89,0.00,,,1.84,,2013-11-21 16:42:00,
2013-11-21 11:53:00,78.0,73.0,30.14,SE,144,4.0,13.0,86,0.00,,,1.84,,2013-11-21 16:53:00,
2013-11-21 12:22:00,77.0,73.0,30.13,ESE,114,7.0,13.0,87,0.00,,,1.26,,2013-11-21 17:22:00,
2013-11-21 12:33:00,77.0,73.0,30.13,ESE,114,7.0,13.0,87,0.00,,,1.26,,2013-11-21 17:33:00,
2013-11-21 12:42:00,77.0,73.0,30.13,ESE,114,7.0,13.0,87,0.00,,,1.26,,2013-11-21 17:42:00,
2013-11-21 12:52:00,78.0,73.0,30.12,ENE,71,6.0,13.0,86,0.00,,,1.26,,2013-11-21 17:52:00,
2013-11-21 13:22:00,73.0,71.0,30.12,ENE,63,4.0,9.0,94,0.06,,,1.32,,2013-11-21 18:22:00,
2013-11-21 13:42:00,73.0,71.0,30.12,East,80,3.0,9.0,95,0.10,,,0.80,,2013-11-21 18:42:00,
2013-11-21 13:52:00,73.0,72.0,30.12,NNE,20,2.0,8.0,96,0.11,,,0.81,,2013-11-21 18:52:00,
2013-11-21 14:02:00,73.0,72.0,30.12,NNE,20,2.0,8.0,96,0.11,,,0.81,,2013-11-21 19:02:00,
2013-11-21 14:22:00,72.0,71.0,30.12,ENE,68,2.0,9.0,96,0.10,,,0.85,,2013-11-21 19:22:00,
2013-11-21 14:52:00,72.0,71.0,30.11,NE,34,5.0,11.0,97,0.44,,,0.59,,2013-11-21 19:52:00,
2013-11-21 15:22:00,72.0,71.0,30.10,East,81,7.0,17.0,97,0.74,,,1.03,,2013-11-21 20:22:00,
2013-11-21 15:32:00,72.0,71.0,30.10,East,81,7.0,17.0,97,0.74,,,1.03,,2013-11-21 20:32:00,
2013-11-21 15:42:00,72.0,71.0,30.10,East,81,7.0,17.0,97,0.74,,,1.03,,2013-11-21 20:42:00,
2013-11-21 15:52:00,72.0,71.0,30.10,East,89,6.0,11.0,98,0.65,,,1.14,,2013-11-21 20:52:00,
2013-11-21 16:11:00,73.0,72.0,30.10,East,95,5.0,11.0,97,0.28,,,1.18,,2013-11-21 21:11:00,
2013-11-21 16:22:00,73.0,71.0,30.11,ENE,71,5.0,12.0,95,0.22,,,1.20,,2013-11-21 21:22:00,
2013-11-21 16:43:00,74.0,72.0,30.10,ENE,67,6.0,14.0,93,0.07,,,1.21,,2013-11-21 21:43:00,
2013-11-21 16:54:00,74.0,71.0,30.11,NE,39,8.0,13.0,89,0.03,,,1.21,,2013-11-21 21:54:00,
2013-11-21 17:13:00,75.0,71.0,30.11,East,82,7.0,17.0,86,0.02,,,1.21,,2013-11-21 22:13:00,
2013-11-21 17:23:00,75.0,71.0,30.11,East,82,7.0,17.0,86,0.02,,,1.21,,2013-11-21 22:23:00,
2013-11-21 17:43:00,76.0,71.0,30.11,East,89,7.0,14.0,85,0.00,,,1.21,,2013-11-21 22:43:00,
2013-11-21 17:53:00,76.0,71.0,30.12,East,82,7.0,13.0,85,0.00,,,1.21,,2013-11-21 22:53:00,
2013-11-21 18:12:00,76.0,72.0,30.13,East,91,6.0,11.0,87,0.00,,,1.21,,2013-11-21 23:12:00,
2013-11-21 18:22:00,76.0,72.0,30.13,ENE,77,5.0,15.0,88,0.00,,,1.21,,2013-11-21 23:22:00,
2013-11-21 18:42:00,76.0,72.0,30.14,ENE,58,5.0,13.0,88,0.00,,,1.21,,2013-11-21 23:42:00,
2013-11-21 18:53:00,76.0,72.0,30.14,ENE,58,5.0,13.0,88,0.00,,,1.21,,2013-11-21 23:53:00,
2013-11-21 19:11:00,75.0,71.0,30.14,ESE,103,6.0,12.0,87,0.01,,,1.22,,2013-11-22 00:11:00,
2013-11-21 19:22:00,76.0,72.0,30.14,East,96,5.0,12.0,86,0.01,,,1.22,,2013-11-22 00:22:00,
2013-11-21 19:42:00,74.0,71.0,30.15,East,96,6.0,15.0,90,0.05,,,1.26,,2013-11-22 00:42:00,
2013-11-21 19:52:00,73.0,71.0,30.15,ENE,70,6.0,13.0,92,0.04,,,1.26,,2013-11-22 00:52:00,
2013-11-21 20:12:00,74.0,72.0,30.15,East,90,4.0,10.0,92,0.04,,,1.26,,2013-11-22 01:12:00,
2013-11-21 20:22:00,74.0,72.0,30.15,East,90,4.0,10.0,92,0.04,,,1.26,,2013-11-22 01:22:00,
2013-11-21 20:42:00,75.0,72.0,30.15,East,93,5.0,13.0,89,0.03,,,1.26,,2013-11-22 01:42:00,
2013-11-21 20:52:00,75.0,71.0,30.16,East,79,5.0,11.0,86,0.00,,,1.26,,2013-11-22 01:52:00,
2013-11-21 21:11:00,76.0,71.0,30.16,ENE,61,8.0,13.0,85,0.00,,,1.26,,2013-11-22 02:11:00,
2013-11-21 21:22:00,76.0,71.0,30.16,ESE,111,4.0,11.0,84,0.00,,,1.26,,2013-11-22 02:22:00,
2013-11-21 21:42:00,76.0,71.0,30.16,East,86,4.0,10.0,85,0.00,,,1.26,,2013-11-22 02:42:00,
2013-11-21 21:53:00,76.0,71.0,30.16,ESE,105,6.0,12.0,85,0.00,,,1.26,,2013-11-22 02:53:00,
2013-11-21 22:02:00,76.0,71.0,30.16,ESE,105,6.0,12.0,85,0.00,,,1.26,,2013-11-22 03:02:00,
2013-11-21 22:12:00,76.0,71.0,30.16,ESE,105,6.0,12.0,85,0.00,,,1.26,,2013-11-22 03:12:00,
2013-11-21 22:22:00,76.0,71.0,30.16,ENE,72,5.0,10.0,85,0.00,,,1.26,,2013-11-22 03:22:00,
2013-11-21 22:43:00,76.0,71.0,30.16,ENE,68,3.0,10.0,85,0.00,,,1.26,,2013-11-22 03:43:00,
2013-11-21 22:54:00,76.0,71.0,30.16,NE,54,6.0,12.0,84,0.00,,,1.26,,2013-11-22 03:54:00,
2013-11-21 23:13:00,76.0,71.0,30.15,East,80,6.0,13.0,85,0.00,,,1.26,,2013-11-22 04:13:00,
2013-11-21 23:23:00,76.0,71.0,30.16,SE,124,4.0,13.0,84,0.00,,,1.24,,2013-11-22 04:23:00,
2013-11-21 23:33:00,76.0,71.0,30.16,SE,124,4.0,13.0,84,0.00,,,1.24,,2013-11-22 04:33:00,
2013-11-21 23:43:00,76.0,71.0,30.16,SE,124,4.0,13.0,84,0.00,,,1.24,,2013-11-22 04:43:00,
2013-11-21 23:53:00,76.0,71.0,30.16,East,89,5.0,9.0,85,0.00,,,1.24,,2013-11-22 04:53:00,